• Em Portugal
  • Lista de países
  • Para 7 dias
  • Temperatura da água
  • Mapas de satélite
  • Mapa do tempo
  • Widgets de tempo
  • user-avatar
    Iniciar Sessão

    Previsão horária em Sagaleipie

    Hoje, 16 Dezembro, Sábado

    Tempo Temperatura Precipitação Vento Pressão Humidade
    00:00 +21°C° 0 mm 0 m/s 723 mmHg 89%
    01:00 +21°C° 0 mm 0 m/s 723 mmHg 92%
    02:00 +21°C° 0 mm 0 m/s 722 mmHg 95%
    03:00 +21°C° 0 mm 0 m/s 722 mmHg 96%
    04:00 +21°C° 0 mm 0 m/s 723 mmHg 97%
    05:00 +21°C° 0 mm 0 m/s 723 mmHg 99%
    06:00 +22°C° 0 mm 0 m/s 723 mmHg 92%
    07:00 +25°C° 0 mm 1 m/s 723 mmHg 85%
    08:00 +27°C° 0 mm 1 m/s 724 mmHg 79%
    09:00 +29°C° 0 mm 1 m/s 724 mmHg 66%
    10:00 +32°C° 0 mm 1 m/s 724 mmHg 53%
    11:00 +34°C° 0 mm 1 m/s 724 mmHg 41%
    12:00 +34°C° 0 mm 1 m/s 723 mmHg 38%
    13:00 +35°C° 0 mm 1 m/s 723 mmHg 35%
    14:00 +35°C° 0 mm 1 m/s 722 mmHg 33%
    15:00 +34°C° 0 mm 1 m/s 722 mmHg 38%
    16:00 +32°C° 0 mm 1 m/s 722 mmHg 43%
    17:00 +30°C° 0 mm 1 m/s 722 mmHg 49%
    18:00 +29°C° 0,1 mm 1 m/s 723 mmHg 57%
    19:00 +27°C° 0,1 mm 1 m/s 723 mmHg 66%
    20:00 +26°C° 0,1 mm 1 m/s 724 mmHg 75%
    21:00 +25°C° 0,1 mm 1 m/s 724 mmHg 81%
    22:00 +24°C° 0,1 mm 1 m/s 724 mmHg 87%
    23:00 +24°C° 0,1 mm 1 m/s 724 mmHg 94%

    Amanhã, 17 Dezembro, Domingo

    Tempo Temperatura Precipitação Vento Pressão Humidade
    00:00 +24°C° 0,2 mm 1 m/s 724 mmHg 95%
    01:00 +24°C° 0,2 mm 1 m/s 723 mmHg 96%
    02:00 +23°C° 0,2 mm 1 m/s 723 mmHg 97%
    03:00 +23°C° 0 mm 1 m/s 723 mmHg 97%
    04:00 +23°C° 0 mm 1 m/s 723 mmHg 96%
    05:00 +23°C° 0 mm 1 m/s 723 mmHg 96%
    06:00 +24°C° 0 mm 1 m/s 723 mmHg 90%
    07:00 +26°C° 0 mm 1 m/s 724 mmHg 83%
    08:00 +27°C° 0 mm 1 m/s 724 mmHg 77%
    09:00 +29°C° 0 mm 1 m/s 724 mmHg 65%
    10:00 +32°C° 0 mm 1 m/s 724 mmHg 52%
    11:00 +34°C° 0 mm 1 m/s 723 mmHg 40%
    12:00 +35°C° 0 mm 1 m/s 723 mmHg 35%
    13:00 +36°C° 0 mm 1 m/s 722 mmHg 30%
    14:00 +37°C° 0 mm 1 m/s 721 mmHg 26%
    15:00 +35°C° 0 mm 1 m/s 721 mmHg 31%
    16:00 +31°C° 0 mm 0 m/s 721 mmHg 36%
    17:00 +29°C° 0 mm 0 m/s 721 mmHg 41%
    18:00 +27°C° 0 mm 0 m/s 722 mmHg 45%
    19:00 +26°C° 0 mm 0 m/s 722 mmHg 49%
    20:00 +25°C° 0 mm 0 m/s 723 mmHg 52%
    21:00 +26°C° 0 mm 1 m/s 723 mmHg 61%
    22:00 +25°C° 0 mm 1 m/s 723 mmHg 69%
    23:00 +24°C° 0 mm 1 m/s 723 mmHg 77%

    Depois de amanhã, 18 Dezembro, Segunda-feira

    Tempo Temperatura Precipitação Vento Pressão Humidade
    00:00 +24°C° 0,2 mm 1 m/s 723 mmHg 82%
    01:00 +24°C° 0,2 mm 1 m/s 722 mmHg 88%
    02:00 +24°C° 0,2 mm 1 m/s 722 mmHg 93%
    03:00 +24°C° 0 mm 1 m/s 722 mmHg 93%
    04:00 +24°C° 0 mm 1 m/s 722 mmHg 92%
    05:00 +24°C° 0 mm 1 m/s 722 mmHg 92%
    06:00 +25°C° 0 mm 1 m/s 723 mmHg 88%
    07:00 +26°C° 0 mm 1 m/s 723 mmHg 85%
    08:00 +26°C° 0 mm 1 m/s 724 mmHg 81%
    09:00 +28°C° 0 mm 1 m/s 724 mmHg 71%
    10:00 +30°C° 0 mm 1 m/s 723 mmHg 62%
    11:00 +32°C° 0 mm 1 m/s 723 mmHg 52%
    12:00 +33°C° 0 mm 1 m/s 722 mmHg 47%
    13:00 +34°C° 0 mm 1 m/s 722 mmHg 41%
    14:00 +36°C° 0 mm 1 m/s 721 mmHg 36%
    15:00 +34°C° 0 mm 1 m/s 721 mmHg 41%
    16:00 +32°C° 0 mm 1 m/s 720 mmHg 47%
    17:00 +30°C° 0 mm 1 m/s 720 mmHg 52%
    18:00 +29°C° 0 mm 1 m/s 721 mmHg 60%
    19:00 +27°C° 0 mm 1 m/s 721 mmHg 67%
    20:00 +26°C° 0 mm 1 m/s 722 mmHg 74%
    21:00 +25°C° 0,2 mm 1 m/s 722 mmHg 80%
    22:00 +25°C° 0,2 mm 1 m/s 722 mmHg 86%
    23:00 +24°C° 0,2 mm 1 m/s 722 mmHg 92%

    19 Dezembro, Terça-feira

    Tempo Temperatura Precipitação Vento Pressão Humidade
    00:00 +24°C° 0,1 mm 1 m/s 722 mmHg 94%
    01:00 +24°C° 0,1 mm 1 m/s 722 mmHg 95%
    02:00 +24°C° 0,1 mm 1 m/s 721 mmHg 96%
    03:00 +24°C° 0,1 mm 1 m/s 722 mmHg 95%
    04:00 +24°C° 0,1 mm 1 m/s 722 mmHg 93%
    05:00 +24°C° 0,1 mm 1 m/s 722 mmHg 92%
    06:00 +25°C° 0,1 mm 1 m/s 722 mmHg 90%
    07:00 +25°C° 0,1 mm 1 m/s 723 mmHg 87%
    08:00 +26°C° 0,1 mm 1 m/s 724 mmHg 84%
    09:00 +28°C° 0 mm 1 m/s 723 mmHg 74%
    10:00 +30°C° 0 mm 2 m/s 723 mmHg 64%
    11:00 +31°C° 0 mm 2 m/s 723 mmHg 54%
    12:00 +32°C° 0 mm 1 m/s 722 mmHg 49%
    13:00 +34°C° 0 mm 1 m/s 721 mmHg 43%
    14:00 +35°C° 0 mm 1 m/s 721 mmHg 38%
    15:00 +33°C° 0 mm 1 m/s 721 mmHg 44%
    16:00 +31°C° 0 mm 1 m/s 721 mmHg 50%
    17:00 +30°C° 0 mm 1 m/s 721 mmHg 56%
    18:00 +28°C° 0 mm 1 m/s 721 mmHg 64%
    19:00 +27°C° 0 mm 1 m/s 722 mmHg 72%
    20:00 +25°C° 0 mm 1 m/s 722 mmHg 80%
    21:00 +25°C° 0,1 mm 1 m/s 722 mmHg 86%
    22:00 +24°C° 0,1 mm 1 m/s 722 mmHg 91%
    23:00 +23°C° 0,1 mm 1 m/s 722 mmHg 97%

    20 Dezembro, Quarta-feira

    Tempo Temperatura Precipitação Vento Pressão Humidade
    00:00 +23°C° 0 mm 1 m/s 722 mmHg 96%
    01:00 +24°C° 0 mm 1 m/s 721 mmHg 95%
    02:00 +24°C° 0 mm 1 m/s 721 mmHg 94%
    03:00 +24°C° 0,1 mm 1 m/s 721 mmHg 93%
    04:00 +24°C° 0,1 mm 1 m/s 722 mmHg 92%
    05:00 +24°C° 0,1 mm 1 m/s 722 mmHg 91%
    06:00 +24°C° 0 mm 1 m/s 722 mmHg 89%
    07:00 +25°C° 0 mm 1 m/s 723 mmHg 88%
    08:00 +25°C° 0 mm 1 m/s 724 mmHg 86%
    09:00 +26°C° 0 mm 1 m/s 723 mmHg 80%
    10:00 +27°C° 0 mm 1 m/s 723 mmHg 73%
    11:00 +28°C° 0 mm 1 m/s 723 mmHg 67%
    12:00 +30°C° 0 mm 1 m/s 722 mmHg 60%
    13:00 +32°C° 0 mm 1 m/s 722 mmHg 53%
    14:00 +33°C° 0 mm 1 m/s 721 mmHg 46%
    15:00 +32°C° 0 mm 1 m/s 721 mmHg 50%
    16:00 +30°C° 0 mm 1 m/s 721 mmHg 55%
    17:00 +29°C° 0 mm 1 m/s 721 mmHg 59%
    18:00 +28°C° 0 mm 1 m/s 722 mmHg 65%
    19:00 +26°C° 0 mm 1 m/s 722 mmHg 71%
    20:00 +25°C° 0 mm 1 m/s 723 mmHg 78%
    21:00 +24°C° 0,1 mm 1 m/s 723 mmHg 83%
    22:00 +24°C° 0,1 mm 1 m/s 722 mmHg 89%
    23:00 +23°C° 0,1 mm 1 m/s 722 mmHg 95%

    21 Dezembro, Quinta-feira

    Tempo Temperatura Precipitação Vento Pressão Humidade
    00:00 +23°C° 0,1 mm 1 m/s 722 mmHg 95%
    01:00 +24°C° 0,1 mm 1 m/s 722 mmHg 95%
    02:00 +24°C° 0,1 mm 1 m/s 722 mmHg 96%
    03:00 +24°C° 0,1 mm 1 m/s 722 mmHg 95%
    04:00 +24°C° 0,1 mm 1 m/s 722 mmHg 94%
    05:00 +22°C° 0,1 mm 0 m/s 722 mmHg 94%
    06:00 +25°C° 0 mm 1 m/s 723 mmHg 89%
    07:00 +25°C° 0 mm 1 m/s 723 mmHg 85%
    08:00 +26°C° 0 mm 1 m/s 724 mmHg 81%
    09:00 +28°C° 0 mm 1 m/s 724 mmHg 71%
    10:00 +30°C° 0 mm 1 m/s 723 mmHg 60%
    11:00 +32°C° 0 mm 1 m/s 723 mmHg 50%
    12:00 +34°C° 0 mm 1 m/s 723 mmHg 45%
    13:00 +35°C° 0 mm 1 m/s 722 mmHg 40%
    14:00 +36°C° 0 mm 1 m/s 721 mmHg 35%
    15:00 +34°C° 0 mm 1 m/s 721 mmHg 41%
    16:00 +32°C° 0 mm 1 m/s 721 mmHg 47%
    17:00 +30°C° 0 mm 1 m/s 721 mmHg 53%
    18:00 +28°C° 0,7 mm 1 m/s 722 mmHg 63%
    19:00 +27°C° 0,7 mm 1 m/s 723 mmHg 73%
    20:00 +25°C° 0,7 mm 1 m/s 723 mmHg 82%
    21:00 +24°C° 0,9 mm 1 m/s 723 mmHg 86%
    22:00 +22°C° 0,9 mm 0 m/s 723 mmHg 90%
    23:00 +22°C° 0,9 mm 0 m/s 723 mmHg 94%
    Mostrar mais